TimeEDT,TemperatureF,Dew PointF,Humidity,Sea Level PressureIn,VisibilityMPH,Wind Direction,Wind SpeedMPH,Gust SpeedMPH,PrecipitationIn,Events,Conditions,WindDirDegrees,DateUTC
12:53 AM,73.9,71.1,91,30.06,10.0,Calm,Calm,-,N/A,,Scattered Clouds,0,2013-06-27 04:53:00
1:53 AM,73.0,71.1,93,30.03,10.0,South,3.5,-,N/A,,Partly Cloudy,180,2013-06-27 05:53:00
2:53 AM,73.9,72.0,93,30.03,10.0,Calm,Calm,-,N/A,,Scattered Clouds,0,2013-06-27 06:53:00
3:53 AM,73.9,72.0,93,30.04,10.0,Calm,Calm,-,N/A,,Scattered Clouds,0,2013-06-27 07:53:00
4:53 AM,73.0,71.1,93,30.03,10.0,Calm,Calm,-,N/A,,Partly Cloudy,0,2013-06-27 08:53:00
5:53 AM,73.0,72.0,96,30.04,10.0,Calm,Calm,-,N/A,,Scattered Clouds,0,2013-06-27 09:53:00
6:49 AM,71.6,71.6,100,30.05,9.0,South,3.5,-,N/A,,Scattered Clouds,170,2013-06-27 10:49:00
6:53 AM,72.0,71.1,97,30.05,10.0,South,4.6,-,N/A,,Scattered Clouds,180,2013-06-27 10:53:00
7:53 AM,75.0,73.0,94,30.05,10.0,Calm,Calm,-,N/A,,Partly Cloudy,0,2013-06-27 11:53:00
8:53 AM,80.1,73.0,79,30.06,10.0,SW,4.6,-,N/A,,Partly Cloudy,220,2013-06-27 12:53:00
9:53 AM,84.0,71.1,65,30.05,10.0,SSW,6.9,-,N/A,,Scattered Clouds,200,2013-06-27 13:53:00
10:53 AM,86.0,71.1,61,30.04,10.0,SSW,8.1,-,N/A,,Partly Cloudy,200,2013-06-27 14:53:00
11:53 AM,88.0,71.1,57,30.04,10.0,SW,5.8,-,N/A,,Scattered Clouds,230,2013-06-27 15:53:00
12:53 PM,89.1,70.0,53,30.03,10.0,Calm,Calm,-,N/A,,Scattered Clouds,0,2013-06-27 16:53:00
1:53 PM,91.0,72.0,53,30.01,10.0,Variable,4.6,-,N/A,,Mostly Cloudy,0,2013-06-27 17:53:00
2:53 PM,88.0,73.0,61,30.01,10.0,SSE,6.9,-,N/A,,Mostly Cloudy,150,2013-06-27 18:53:00
3:49 PM,82.4,75.2,79,29.99,5.0,ENE,6.9,-,0.06,Rain-Thunderstorm,Heavy Thunderstorms and Rain,70,2013-06-27 19:49:00
3:53 PM,82.0,75.0,79,29.99,7.0,East,4.6,-,0.08,Rain-Thunderstorm,Heavy Thunderstorms and Rain,90,2013-06-27 19:53:00
4:18 PM,86.0,75.2,70,29.97,10.0,ESE,5.8,-,0.07,Rain,Light Rain,120,2013-06-27 20:18:00
4:27 PM,86.0,75.2,70,29.98,10.0,ESE,3.5,-,0.07,Thunderstorm,Thunderstorm,110,2013-06-27 20:27:00
4:53 PM,80.1,75.0,85,29.96,10.0,WNW,10.4,-,0.07,Rain-Thunderstorm,Light Thunderstorms and Rain,300,2013-06-27 20:53:00
5:15 PM,80.6,73.4,79,29.96,10.0,NW,5.8,-,0.00,Rain,Light Rain,310,2013-06-27 21:15:00
5:53 PM,81.0,75.0,82,29.96,10.0,WNW,6.9,-,0.00,,Mostly Cloudy,300,2013-06-27 21:53:00
6:53 PM,84.0,75.0,74,29.96,10.0,NW,5.8,-,N/A,,Mostly Cloudy,320,2013-06-27 22:53:00
7:53 PM,84.0,73.9,72,29.96,10.0,Calm,Calm,-,N/A,,Mostly Cloudy,0,2013-06-27 23:53:00
8:53 PM,80.1,75.0,85,29.95,10.0,Variable,4.6,-,N/A,,Mostly Cloudy,0,2013-06-28 00:53:00
9:53 PM,80.1,73.9,81,29.97,10.0,South,9.2,-,N/A,,Scattered Clouds,190,2013-06-28 01:53:00
10:53 PM,77.0,73.0,88,29.99,10.0,South,4.6,-,N/A,,Partly Cloudy,190,2013-06-28 02:53:00
11:53 PM,75.9,73.0,91,29.98,10.0,SSW,3.5,-,N/A,,Partly Cloudy,210,2013-06-28 03:53:00